Showing default

QIANFAN-21, 61554

Orbit data source: Space-Track

QIANFAN-21, 61554 is a Chinese payload satellite in LEO that was launched on Tue, 15 Oct 2024 UTC via a CHANG ZHENG 6A launch vehicle from the Taiyaun Space Center, China (TSC). Payload-class satellites include a variety of spacecraft equipped with specific instruments for various scientific and technological missions. These include communications satellites like Starlink; space stations such as the ISS; scientific satellites like the Hubble; Earth observation satellites from companies like Planet Labs, Umbra, and HawkEye 360; GPS; miniature CubeSats for education and research; and military/defense satellites.

Loading next visibility...
Identifier
61554, 2024-185C
Orbit
LEO
Country
Flag of CNCN / PRC
Related business
Manufacturer
GESIH/SECM
Mission
Partially operational Commercial Communications
Bus & Motor
QIANFAN, Unknown motor
Mass
267 kg wet, ~267 kg dry
Launch date (UTC)
2024-10-15 (1 year ago)
Launch vehicle
CHANG ZHENG 6A
Launch site
Taiyaun Space Center, China (TSC)
Object type
Payload
Rocket body
Debris
Shape & HBR
Box + 1 Pan, 5.0 m
Radar Cross Section
13.200 m², Large (>1 m²)

Expand to show TLE details & history
Last TLE update: 8 hours ago

TLE from 8 hours ago
0 QIANFAN-21
1 61554U 24185C   25310.31444278  .00001023  00000-0  45182-3 0  9994
2 61554  88.9714  81.2391 0012576 118.0017 242.2449 14.22526976 64790
Epoch: 2025-11-06T07:32Z
TLE epoch observation values (Epoch: 2025-11-06T07:32:47.856Z)
Latitude
0.00005°
Longitude
-77.73483°
Altitude
824.1 km
Speed
7.439 km/s
True Right ascension
05h 24m 57s
True Declination
0° 00' 00"
Sunlit
Object was in full shadow at epoch
Visualization orbit readout
Latitude
Unknown
Longitude
Unknown
Altitude
Unknown
Speed
Unknown
Apparent Right ascension
Unknown
Apparent Declination
Unknown
Sunlit
N/A
Visualization observer readout
Local Sidereal Time
11:46:44
Azimuth
Unknown
Elevation
Unknown
Doppler factor
Unknown
Orbital elements
Apogee altitude
822.812 km
Perigee altitude
804.723 km
Semi-major axis
7,191.904 km
Eccentricity
0.00126
Inclination
88.9714°
RAAN
81.2391°
Arg. of periapsis
118.0017°
True anomaly
242.11746°
Mean anomaly
242.2449°
Eccentric anomaly
242.18117°
Mean motion
3.55858 °/min
Orbital period
101.16 mins
BSTAR
0.00045182
Loading maneuver chart data...
Computing Atmospheric mass density...
Loading historical data...
Loading historical data...
Loading historical data...
Loading historical data...
Loading historical data...
Loading historical data...
Loading historical data...

Documentation

Showing up to 5 results
|